Location: Unspecified
(0.0000°N, 0.0000°E)
Time: 23:30:01
(UTC+00:00)

S-56A Canister/Altair - Pass Details

Date: 01 October 2020
Orbit: 633 x 2499 km, 38.9° (Epoch: 28 October)

Event Time Altitude Azimuth Distance (km) Brightness Sun altitude
Rises 09:16:10 0° 217° (SW) 4,274 11.1 51.5°
Reaches altitude 10° 09:18:46 10° 212° (SSW) 3,525 10.9 52.2°
Maximum altitude 09:27:58 56° 135° (SE) 2,162 11.4 54.5°
Drops below altitude 10° 09:41:10 10° 61° (ENE) 4,944 12.2 57.7°
Sets 09:45:29 0° 58° (ENE) 6,082 12.5 58.8°
